Date,TemperatureHighF,TemperatureAvgF,TemperatureLowF,DewpointHighF,DewpointAvgF,DewpointLowF,HumidityHigh,HumidityAvg,HumidityLow,PressureMaxIn,PressureMinIn,WindSpeedMaxMPH,WindSpeedAvgMPH,GustSpeedMaxMPH,PrecipitationSumIn
2013-4-1,64,48,37,48,38,13,97,72,34,29.73,29.45,18,4,0,0.00
2013-4-2,40,35,30,17,14,11,52,42,30,29.89,29.73,19,4,0,0.00
2013-4-3,47,38,30,18,14,9,58,40,22,30.10,29.87,15,4,0,0.00
2013-4-4,58,44,30,27,17,13,61,38,17,30.24,30.00,11,2,0,0.00
2013-4-5,62,48,39,34,28,22,70,50,25,30.00,29.57,16,3,0,0.00
2013-4-6,48,38,33,25,13,3,58,38,17,30.28,29.82,13,4,0,0.00
2013-4-7,54,45,30,41,31,20,84,60,33,30.28,29.95,11,2,0,0.00
2013-4-8,67,52,45,44,41,37,92,69,34,30.05,29.89,7,1,0,0.00
2013-4-9,72,54,46,53,45,40,96,75,41,30.04,29.81,13,2,0,0.01
2013-4-10,58,49,46,48,45,43,95,86,69,29.96,29.82,6,1,0,0.00
2013-4-11,51,46,44,46,42,31,97,85,61,30.09,29.78,6,1,0,0.00
2013-4-12,43,40,38,39,36,32,96,87,67,30.12,29.73,11,3,0,0.01
2013-4-13,53,42,36,41,38,35,96,86,58,29.88,29.72,6,1,0,0.00
2013-4-14,53,47,40,42,34,28,94,64,38,30.15,29.86,12,2,0,0.00
2013-4-15,54,45,35,41,35,30,84,69,48,30.34,30.16,9,2,0,0.00
2013-4-16,66,53,40,52,42,37,92,69,46,30.36,30.01,13,1,0,0.00
2013-4-17,68,60,48,54,39,28,85,51,24,30.28,30.00,9,2,0,0.00
2013-4-18,63,53,44,46,36,29,75,56,33,30.38,30.10,11,2,0,0.00
2013-4-19,77,65,54,64,59,46,97,82,60,30.10,29.61,10,2,0,0.00
2013-4-20,67,55,46,64,43,25,95,66,39,30.14,29.55,12,3,0,0.10
2013-4-21,55,44,36,33,25,20,71,50,29,30.63,30.16,11,2,0,0.00
2013-4-22,51,43,34,37,32,24,84,68,35,30.72,30.55,12,2,0,0.00
2013-4-23,43,42,40,42,39,33,96,90,73,30.54,30.08,11,2,0,0.05
2013-4-24,70,54,43,54,47,42,96,79,48,30.06,29.74,8,2,0,0.01
2013-4-25,67,56,46,54,39,27,92,58,23,30.21,29.78,13,2,0,0.03
2013-4-26,57,50,45,43,37,31,90,64,44,30.38,30.21,7,2,0,0.00
2013-4-27,62,52,39,43,38,30,97,63,33,30.37,30.25,6,1,0,0.00
2013-4-28,64,54,41,45,38,29,88,57,36,30.29,30.18,9,1,0,0.00
2013-4-29,71,59,49,49,40,19,83,54,21,30.23,30.13,12,1,0,0.00
2013-4-30,68,55,44,42,33,21,76,48,17,30.32,30.20,7,1,0,0.00